Weather in Pechory

Russia / Pskov Oblast     57°48′50″N   27°36′32″E
temp.,
°C
wind,
m/s
gust,
m/s
humid.,
%
clouds,
%
prec.,
mm/h
press.,
hPa
HPBL,
m
15 august, mon
mon1500:00+17ese22865 0.0 101915
03:00+16se238894 0.0 101850
06:00+16ese258799 0.0 1018109
09:00+22se356671 0.0 1018293
12:00+26se465060 0.0 1018912
15:00+28se454762 0.0 10171930
18:00+24ese236596 0.0 101760
21:00+23se396792 0.0 1017257
16 august, tue
tue1600:00+19se278555 0.0 1018117
03:00+18sse248766 0.0 101867
06:00+17se248717 0.0 101778
09:00+22se376380 0.0 1018316
12:00+27se474929 0.0 1017886
15:00+29se34425 0.0 10171623
18:00+28ese344786 0.0 10161681
21:00+21s2473100 0.1 101785
17 august, wed
wed1700:00+18sse2485100 0.3 101770
03:00+19s2284100 0.3 101740
06:00+19sse268296 0.0 1017158
09:00+21se41069100 0.0 1017407
12:00+25se4752100 0.0 1017647
15:00+27sse344696 0.0 10171026
18:00+27se244977 0.0 1016866
21:00+21se22675 0.0 101735
18 august, thu
thu1800:00+19sse237598 0.0 101755
03:00+18sse2374100 0.0 101747
06:00+18s227343 0.0 101818
09:00+23se23585 0.0 1018221
12:00+28se234325 0.0 10181009
15:00+30se23385 0.0 10181668
18:00+29ese23455 0.0 10181311
21:00+22ese11655 0.0 101811
19 august, fri
fri1900:00+20sse26735 0.0 1019102
03:00+19sse24724 0.0 101971
06:00+18sse23745 0.0 101947
09:00+23se35595 0.0 1019274
12:00+28ese35393 0.0 1019978
15:00+29ese45330 0.0 10181837
18:00+28ese35410 0.0 10171489
21:00+21ese23660 0.0 101755